Weather History for KOWD - October, 2013

Change the Weather History Date:

Friday, October 18, 2013

  Actual Average Record
Temperature  
Mean Temperature 55 °F -  
Max Temperature 69 °F 58 °F 77 °F (1998)
Min Temperature 39 °F 35 °F 24 °F (1997)
Degree Days  
Heating Degree Days 10    
Growing Degree Days 5 (Base 50)    
Moisture  
Dew Point 51 °F    
Average Humidity 74    
Maximum Humidity 94    
Minimum Humidity 40    
Precipitation  
Precipitation 0.04 in - - ()
Sea Level Pressure  
Sea Level Pressure 29.73 in    
Wind  
Wind Speed 7 mph (WSW)    
Max Wind Speed 17 mph    
Max Gust Speed 25 mph    
Visibility 10 miles    
Events Rain    
Averages and records for this station are not official NWS values.
T = Trace of Precipitation, MM = Missing Value Source: NWS Daily Summary

Daily Weather History Graph

Daily Weather History Graph

Search for Another Location

Airport or City:

Trip Planner

Search our weather history database for the weather conditions in past years. The results will help you decide how hot, cold, wet, or windy it might be!

Date:

Astronomy

Oct. 18, 2013 Rise Set
Actual Time 7:01 AM EDT 5:57 PM EDT
Civil Twilight 6:32 AM EDT 6:26 PM EDT
Nautical Twilight 6:00 AM EDT 6:58 PM EDT
Astronomical Twilight 5:27 AM EDT 7:31 PM EDT
Moon 5:45 PM EDT (10/18) 6:33 AM EDT (10/18)
Length of Visible Light 11h 53m
Length of Day
10h 56m
Full, 100% of the Moon is Illuminated
Oct 18
Full
Oct 18
Full
Oct 26
Last Quarter
Nov 3
New
Nov 10
First Quarter

Hourly Weather History & Observations

Time (EDT) Temp. Dew Point Humidity Pressure Visibility Wind Dir Wind Speed Gust Speed Precip Events Conditions
12:53 AM 61.0 °F 59.0 °F 93% 29.71 in 7.0 mi South 4.6 mph - 0.03 in   Overcast
1:53 AM 62.1 °F 59.0 °F 90% 29.70 in 8.0 mi SSW 5.8 mph - N/A   Overcast
2:11 AM 62.6 °F 60.8 °F 94% 29.68 in 8.0 mi South 4.6 mph - N/A   Overcast
2:20 AM 62.6 °F 60.8 °F 94% 29.68 in 8.0 mi South 4.6 mph - N/A   Overcast
2:53 AM 62.1 °F 60.1 °F 93% 29.65 in 6.0 mi South 5.8 mph - 0.01 in Rain Light Rain
3:53 AM 63.0 °F 60.1 °F 90% 29.64 in 10.0 mi South 6.9 mph - 0.00 in   Overcast
4:00 AM 62.6 °F 60.8 °F 94% 29.63 in 10.0 mi SSW 8.1 mph - N/A   Overcast
4:53 AM 64.0 °F 60.1 °F 87% 29.62 in 10.0 mi SSW 5.8 mph - N/A   Overcast
5:50 AM 64.4 °F 60.8 °F 88% 29.62 in 10.0 mi SW 6.9 mph - N/A   Overcast
5:53 AM 64.0 °F 60.1 °F 87% 29.62 in 10.0 mi SSW 6.9 mph - N/A   Overcast
6:53 AM 63.0 °F 60.1 °F 90% 29.64 in 10.0 mi WSW 3.5 mph - N/A   Scattered Clouds
7:11 AM 62.6 °F 59.0 °F 88% 29.65 in 10.0 mi West 8.1 mph - N/A   Mostly Cloudy
7:19 AM 62.6 °F 59.0 °F 88% 29.65 in 10.0 mi WSW 11.5 mph 17.3 mph N/A   Scattered Clouds
7:53 AM 62.1 °F 55.0 °F 78% 29.68 in 10.0 mi WNW 11.5 mph - N/A   Clear
8:53 AM 63.0 °F 52.0 °F 67% 29.70 in 10.0 mi West 8.1 mph - N/A   Clear
9:53 AM 64.9 °F 50.0 °F 58% 29.73 in 10.0 mi WNW 12.7 mph 25.3 mph N/A   Clear
10:53 AM 66.0 °F 46.9 °F 50% 29.75 in 10.0 mi West 17.3 mph 24.2 mph N/A   Clear
11:53 AM 66.9 °F 45.0 °F 45% 29.75 in 10.0 mi West 15.0 mph 23.0 mph N/A   Partly Cloudy
12:53 PM 66.9 °F 44.1 °F 44% 29.75 in 10.0 mi WNW 15.0 mph 20.7 mph N/A   Clear
1:53 PM 69.1 °F 44.1 °F 40% 29.75 in 10.0 mi West 13.8 mph - N/A   Scattered Clouds
2:53 PM 68.0 °F 43.0 °F 40% 29.76 in 10.0 mi NW 15.0 mph - N/A   Clear
3:53 PM 66.9 °F 42.1 °F 40% 29.78 in 10.0 mi West 16.1 mph 24.2 mph N/A   Partly Cloudy
4:53 PM 64.9 °F 42.1 °F 43% 29.79 in 10.0 mi West 12.7 mph - N/A   Clear
5:53 PM 62.1 °F 42.1 °F 48% 29.81 in 10.0 mi West 6.9 mph - N/A   Clear
6:53 PM 57.9 °F 42.1 °F 56% 29.83 in 10.0 mi West 3.5 mph - N/A   Clear
7:53 PM 48.9 °F 42.1 °F 77% 29.85 in 10.0 mi Calm Calm - N/A   Clear
8:53 PM 45.0 °F 41.0 °F 86% 29.87 in 10.0 mi Calm Calm - N/A   Clear
9:53 PM 44.1 °F 41.0 °F 89% 29.90 in 10.0 mi Calm Calm - N/A   Clear
10:53 PM 41.0 °F 39.0 °F 93% 29.91 in 10.0 mi Calm Calm - N/A   Clear
11:53 PM 39.9 °F 37.9 °F 93% 29.92 in 10.0 mi Calm Calm - N/A   Clear